�N����,����,����,����,����,�C��,���x,�~����,�S�V����,�ő�u�ԕ���,,,,,
,,,,,,,,,����,����,����,�N��,,
yyyy/mm/dd,hh:mm:ss,(16),16����,m/s,��,%,mm,KW/�u,(16),16����,m/s,Time,,
2019/11/1,1:00:00,7,��쓌,2.6,15.1,76.4,0,0,9,��쐼,5.4,14,,
2019/11/1,2:00:00,9,��쐼,2.2,15.8,63.5,0,0,7,��쓌,5,41,,
2019/11/1,3:00:00,8,��,2,14.5,66.3,0,0,7,��쓌,5.7,16,,
2019/11/1,4:00:00,9,��쐼,1.6,8.4,92.6,0,0,8,��,3.6,2,,
2019/11/1,5:00:00,8,��,2.5,12.6,72.4,0,0,8,��,3.9,59,,
2019/11/1,6:00:00,12,��,2.2,9,82.9,0,0,7,��쓌,5.5,14,,
2019/11/1,7:00:00,2,�k��,0.9,7.9,92.6,0,0.03,13,���k��,3.8,20,,
2019/11/1,8:00:00,14,�k��,0.3,11,91.1,0,0.09,13,���k��,2.5,36,,
2019/11/1,9:00:00,12,��,5.6,17.2,50.2,0,0.42,11,���쐼,9.7,52,,
2019/11/1,10:00:00,14,�k��,2.5,15.4,55.3,0,0.5,14,�k��,10.1,4,,
2019/11/1,11:00:00,13,���k��,7.1,15.5,30.5,0,0.63,11,���쐼,12.6,9,,
2019/11/1,12:00:00,12,��,6.2,15.6,37.2,0,0.64,13,���k��,11.1,26,,
2019/11/1,13:00:00,12,��,6.5,14.9,33.3,0,0.59,10,�쐼,13.8,23,,
2019/11/1,14:00:00,12,��,6.7,13.7,39.3,0,0.49,10,�쐼,12.4,16,,
2019/11/1,15:00:00,10,�쐼,5.3,11.9,48.3,0,0.22,12,��,11.6,11,,
2019/11/1,16:00:00,11,���쐼,4,9.5,53.6,0,0.12,10,�쐼,11.7,3,,
2019/11/1,17:00:00,11,���쐼,0.8,5.9,67.4,0,0.01,12,��,5.5,13,,
2019/11/1,18:00:00,11,���쐼,1.3,3.5,84.5,0,0,14,�k��,3,12,,
2019/11/1,19:00:00,10,�쐼,1.8,2,88.6,0,0,12,��,3.4,50,,
2019/11/1,20:00:00,12,��,1.8,-0.5,92.6,0,0,12,��,3.2,20,,
2019/11/1,21:00:00,13,���k��,0.9,1.2,93.7,0,0,15,�k�k��,3.3,50,,
2019/11/1,22:00:00,13,���k��,2.2,-0.9,96,0,0,16,�k,3.1,14,,
2019/11/1,23:00:00,13,���k��,1.9,-1.4,95.9,0,0,12,��,3.4,33,,
2019/11/1,0:00:00,12,��,2.8,-0.9,96.8,0,0,13,���k��,3.9,56,,
2019/11/2,1:00:00,13,���k��,1.5,-0.5,94.5,0,0,13,���k��,3.8,20,,
2019/11/2,2:00:00,13,���k��,2.2,-0.8,96,0,0,13,���k��,3.6,36,,
2019/11/2,3:00:00,14,�k��,2.8,-0.3,92.9,0,0,14,�k��,4.6,53,,
2019/11/2,4:00:00,14,�k��,2.6,-0.4,94.5,0,0,14,�k��,3.7,40,,
2019/11/2,5:00:00,13,���k��,2.5,-0.9,96.4,0,0,13,���k��,4.3,10,,
2019/11/2,6:00:00,13,���k��,2.9,-2.2,96.6,0,0,13,���k��,4,48,,
2019/11/2,7:00:00,12,��,2,0.9,90.7,0,0.08,13,���k��,4,31,,
2019/11/2,8:00:00,10,�쐼,0.6,6.5,81.6,0,0.26,15,�k�k��,7.4,52,,
2019/11/2,9:00:00,2,�k��,0.5,12.7,59.9,0,0.44,4,��,2.9,20,,
2019/11/2,10:00:00,11,���쐼,4.8,13.5,45,0,0.55,11,���쐼,7.4,55,,
2019/11/2,11:00:00,11,���쐼,4.4,14.6,42.4,0,0.61,12,��,7.6,15,,
2019/11/2,12:00:00,11,���쐼,3.8,15.1,42.2,0,0.62,13,���k��,7.6,30,,
2019/11/2,13:00:00,3,���k��,3.6,14.9,49.7,0,0.57,12,��,8.8,14,,
2019/11/2,14:00:00,3,���k��,2.7,14.7,58.2,0,0.47,4,��,5.9,7,,
2019/11/2,15:00:00,3,���k��,2.3,13.4,56.9,0,0.32,4,��,5.3,28,,
2019/11/2,16:00:00,12,��,1.3,11.7,53,0,0.13,4,��,4.8,11,,
2019/11/2,17:00:00,11,���쐼,2.1,9.9,60.2,0,0.01,13,���k��,5.4,3,,
2019/11/2,18:00:00,10,�쐼,4.4,10,58.2,0,0,11,���쐼,8,8,,
2019/11/2,19:00:00,9,��쐼,2.9,9.4,62.7,0,0,10,�쐼,6.5,4,,
2019/11/2,20:00:00,9,��쐼,1.5,8.4,67.4,0,0,9,��쐼,4.3,2,,
2019/11/2,21:00:00,10,�쐼,3.4,9.7,62.2,0,0,9,��쐼,5.3,51,,
2019/11/2,22:00:00,9,��쐼,2.4,9.4,63.2,0,0,10,�쐼,5,17,,
2019/11/2,23:00:00,8,��,1.7,6.5,69.2,0,0,9,��쐼,3.9,24,,
2019/11/2,0:00:00,11,���쐼,2.3,2.9,88.7,0,0,13,���k��,3.9,54,,
2019/11/3,1:00:00,10,�쐼,1.5,7.7,77.2,0,0,11,���쐼,3.9,14,,
2019/11/3,2:00:00,10,�쐼,2.4,6.2,87.4,0,0,10,�쐼,3.6,59,,
2019/11/3,3:00:00,1,�k�k��,1.3,7.2,82.3,0,0,11,���쐼,3.8,6,,
2019/11/3,4:00:00,13,���k��,1.8,6.8,89,0,0,12,��,2.8,49,,
2019/11/3,5:00:00,10,�쐼,1.5,4.9,85.7,0,0,15,�k�k��,3.8,37,,
2019/11/3,6:00:00,13,���k��,1.4,3.1,79.7,0,0,11,���쐼,4.3,18,,
2019/11/3,7:00:00,12,��,1,2.5,84.7,0,0.06,13,���k��,2.9,0,,
2019/11/3,8:00:00,14,�k��,1,8.1,56.6,0,0.16,14,�k��,3.8,36,,
2019/11/3,9:00:00,14,�k��,2.9,9.7,46.6,0,0.43,13,���k��,6,25,,
2019/11/3,10:00:00,14,�k��,2.2,10.9,37.9,0,0.57,14,�k��,4.8,38,,
2019/11/3,11:00:00,13,���k��,2.7,11.8,40.4,0,0.63,13,���k��,5.5,54,,
2019/11/3,12:00:00,2,�k��,0.9,12.2,34.1,0,0.64,10,�쐼,4.9,13,,
2019/11/3,13:00:00,6,�쓌,2.9,12.4,46.3,0,0.59,5,���쓌,6.5,17,,
2019/11/3,14:00:00,6,�쓌,3.1,11.3,49.9,0,0.49,5,���쓌,5.7,56,,
2019/11/3,15:00:00,5,���쓌,2.3,10.6,57.1,0,0.32,5,���쓌,5.2,1,,
2019/11/3,16:00:00,6,�쓌,0.3,7.7,62.7,0,0.12,6,�쓌,3.1,6,,
2019/11/3,17:00:00,12,��,1.2,2.8,80,0,0.01,13,���k��,1.9,0,,
2019/11/3,18:00:00,13,���k��,1.4,2.1,83.8,0,0,14,�k��,3,40,,
2019/11/3,19:00:00,14,�k��,2.9,4.8,63.2,0,0,15,�k�k��,4.9,18,,
2019/11/3,20:00:00,15,�k�k��,0.7,3.6,66,0,0,13,���k��,4.7,18,,
2019/11/3,21:00:00,16,�k,0.7,2.5,76.7,0,0,15,�k�k��,2.6,53,,
2019/11/3,22:00:00,16,�k,0.9,2.1,76.6,0,0,15,�k�k��,2.4,16,,
2019/11/3,23:00:00,11,���쐼,1,-3.3,91.8,0,0,16,�k,3.2,6,,
2019/11/3,0:00:00,14,�k��,3,1.8,76.7,0,0,14,�k��,5.1,48,,
2019/11/4,1:00:00,14,�k��,3.2,0.9,82.3,0,0,14,�k��,5.4,8,,
2019/11/4,2:00:00,13,���k��,2.9,-1.6,84.3,0,0,14,�k��,4.4,1,,
2019/11/4,3:00:00,13,���k��,3.1,0.5,85.3,0,0,14,�k��,4.8,25,,
2019/11/4,4:00:00,13,���k��,3.5,-0.4,83.2,0,0,13,���k��,4.7,59,,
2019/11/4,5:00:00,14,�k��,1.6,-1.5,86.6,0,0,13,���k��,5.2,32,,
2019/11/4,6:00:00,13,���k��,3.3,-0.5,83.7,0,0,14,�k��,5.8,44,,
2019/11/4,7:00:00,13,���k��,3.7,0.7,80.2,0,0.07,13,���k��,6.1,45,,
2019/11/4,8:00:00,13,���k��,3.5,4.1,70.4,0,0.25,13,���k��,6,0,,
2019/11/4,9:00:00,14,�k��,3.5,7.1,57.2,0,0.42,14,�k��,6.6,59,,
2019/11/4,10:00:00,14,�k��,2.7,9.2,53,0,0.55,14,�k��,7.4,0,,
2019/11/4,11:00:00,14,�k��,2.7,10,51.7,0,0.61,14,�k��,5.4,57,,
2019/11/4,12:00:00,15,�k�k��,2,10.9,40.6,0,0.62,14,�k��,5.3,0,,
2019/11/4,13:00:00,7,��쓌,2.1,10.6,50.2,0,0.57,15,�k�k��,5.9,6,,
2019/11/4,14:00:00,7,��쓌,3.5,10.2,51.5,0,0.47,7,��쓌,5.3,49,,
2019/11/4,15:00:00,7,��쓌,2.8,9.5,58.1,0,0.3,8,��,5.7,38,,
2019/11/4,16:00:00,9,��쐼,1.5,7.5,63.2,0,0.1,8,��,4.3,4,,
2019/11/4,17:00:00,10,�쐼,1.7,5.7,68.3,0,0.01,10,�쐼,3.1,26,,
2019/11/4,18:00:00,13,���k��,1.4,1.5,87.5,0,0,14,�k��,2.8,24,,
2019/11/4,19:00:00,13,���k��,2.1,0.7,91.6,0,0,15,�k�k��,3.5,10,,
2019/11/4,20:00:00,13,���k��,2.4,-1.8,97.5,0,0,12,��,3.4,7,,
2019/11/4,21:00:00,11,���쐼,0.6,-2.8,94.5,0,0,12,��,3.3,19,,
2019/11/4,22:00:00,12,��,0.7,-2.5,97.3,0,0,12,��,1.8,59,,
2019/11/4,23:00:00,10,�쐼,1.2,-3,93.7,0,0,9,��쐼,4.1,55,,
2019/11/4,0:00:00,16,�É�,0.2,-3.3,95.3,0,0,13,���k��,4.4,25,,
2019/11/5,1:00:00,16,�É�,0.2,-3.2,97.4,0,0,6,�쓌,2.7,59,,
2019/11/5,2:00:00,13,���k��,3.1,-0.9,89.5,0,0,14,�k��,4.9,23,,
2019/11/5,3:00:00,13,���k��,3.2,0.6,84.2,0,0,14,�k��,5.2,58,,
2019/11/5,4:00:00,16,�k,0.7,-3.1,89.2,0,0,13,���k��,5.2,1,,
2019/11/5,5:00:00,11,���쐼,1.6,-4,94.3,0,0,11,���쐼,2.4,57,,
2019/11/5,6:00:00,16,�É�,0.2,-6.5,90.2,0,0,12,��,2.4,15,,
2019/11/5,7:00:00,13,���k��,0.7,-2.2,95.4,0,0.07,12,��,1.8,0,,
2019/11/5,8:00:00,15,�k�k��,0.8,4,69.8,0,0.25,13,���k��,2.5,5,,
2019/11/5,9:00:00,14,�k��,2.4,7.4,61,0,0.43,14,�k��,3.7,58,,
2019/11/5,10:00:00,15,�k�k��,1.1,10.1,49.7,0,0.55,16,�k,3.9,26,,
2019/11/5,11:00:00,12,��,2.1,9.8,51.1,0,0.62,12,��,4.7,50,,
2019/11/5,12:00:00,7,��쓌,3.3,10.2,44.9,0,0.63,8,��,6,55,,
2019/11/5,13:00:00,7,��쓌,3.2,9.7,52.3,0,0.57,8,��,6.2,19,,
2019/11/5,14:00:00,8,��,2.8,9.4,58.7,0,0.47,8,��,6.3,16,,
2019/11/5,15:00:00,7,��쓌,2.7,8.7,63,0,0.3,8,��,5.8,33,,
2019/11/5,16:00:00,7,��쓌,1.2,7.2,68.6,0,0.12,8,��,4.5,8,,
2019/11/5,17:00:00,14,�k��,0.9,1.1,87.5,0,0.01,8,��,2.3,1,,
2019/11/5,18:00:00,13,���k��,1.5,-0.4,93,0,0,13,���k��,3.5,39,,
2019/11/5,19:00:00,12,��,2,-1.4,96.9,0,0,12,��,3.5,59,,
2019/11/5,20:00:00,12,��,1.2,0.1,97.5,0,0,13,���k��,5.4,49,,
2019/11/5,21:00:00,13,���k��,1.2,-1.9,98.4,0,0,12,��,3.1,33,,
2019/11/5,22:00:00,13,���k��,1.4,-2.3,99,0,0,13,���k��,3.3,39,,
2019/11/5,23:00:00,13,���k��,1.7,0.6,98.2,0,0,12,��,4.7,54,,
2019/11/5,0:00:00,11,���쐼,0.3,-2,97.8,0,0,12,��,3.5,3,,
2019/11/6,1:00:00,12,��,2.5,2.8,92.4,0,0,11,���쐼,7,51,,
2019/11/6,2:00:00,-0.3,#N/A,94.2,0,0,,,,,,,,
2019/11/6,3:00:00,14,�k��,2.8,2.8,84.9,0,0,14,�k��,5.5,41,,
2019/11/6,4:00:00,13,���k��,2.8,0.7,92.9,0,0,13,���k��,4.8,57,,
2019/11/6,5:00:00,14,�k��,2.3,1.8,84.2,0,0,15,�k�k��,5.3,35,,
2019/11/6,6:00:00,14,�k��,1.1,-2,91.1,0,0,12,��,3.1,1,,
2019/11/6,7:00:00,5,���쓌,0.8,1.6,79.4,0,0.07,1,�k�k��,2.7,40,,
2019/11/6,8:00:00,3,���k��,0.7,8.1,46.6,0,0.26,8,��,3.2,35,,
2019/11/6,9:00:00,15,�k�k��,1.8,8.8,48.9,0,0.39,15,�k�k��,3.3,36,,
2019/11/6,10:00:00,15,�k�k��,2.3,8.2,43.3,0,0.41,14,�k��,4.5,26,,
2019/11/6,11:00:00,14,�k��,2.6,10.9,42.8,0,0.57,13,���k��,5.2,36,,
2019/11/6,12:00:00,15,�k�k��,3.8,9.2,37.1,0,0.68,13,���k��,9,38,,
2019/11/6,13:00:00,16,�k,2.5,9.6,40.3,0,0.52,14,�k��,8,44,,
2019/11/6,14:00:00,15,�k�k��,2.5,8,52.1,0,0.25,14,�k��,7.9,21,,
2019/11/6,15:00:00,15,�k�k��,3.2,8.4,48.4,0,0.23,15,�k�k��,6.4,22,,
2019/11/6,16:00:00,1,�k�k��,2.4,6.6,55.2,0,0.13,1,�k�k��,5.1,15,,
2019/11/6,17:00:00,16,�k,1.3,4.7,56.2,0,0.01,15,�k�k��,5,19,,
2019/11/6,18:00:00,16,�k,1.3,2.5,61.2,0,0,15,�k�k��,3.8,44,,
2019/11/6,19:00:00,12,��,1.4,0.5,75,0,0,13,���k��,2.8,20,,
2019/11/6,20:00:00,13,���k��,1.8,-2,84.4,0,0,12,��,2.5,52,,
2019/11/6,21:00:00,13,���k��,2.1,-5.5,93.5,0,0,11,���쐼,3,41,,
2019/11/6,22:00:00,13,���k��,1.2,-5.4,91.6,0,0,13,���k��,2.6,0,,
2019/11/6,23:00:00,13,���k��,1.9,-4.3,93.7,0,0,12,��,3,6,,
2019/11/6,0:00:00,13,���k��,2.4,-4,93.5,0,0,12,��,3.2,58,,
2019/11/7,1:00:00,13,���k��,1.9,-4.4,94.2,0,0,12,��,3.4,12,,
2019/11/7,2:00:00,14,�k��,1.9,-4.6,92.6,0,0,14,�k��,3.4,48,,
2019/11/7,3:00:00,13,���k��,1.7,-5.2,94.2,0,0,13,���k��,3.5,26,,
2019/11/7,4:00:00,14,�k��,2.5,-4.9,91.6,0,0,13,���k��,3.2,49,,
2019/11/7,5:00:00,13,���k��,3,-4.1,89.5,0,0,13,���k��,4,53,,
2019/11/7,6:00:00,13,���k��,1.7,-4.1,91.4,0,0,13,���k��,4.3,15,,
2019/11/7,7:00:00,13,���k��,2.4,-2.9,89.3,0,0.02,14,�k��,3.8,59,,
2019/11/7,8:00:00,13,���k��,1.5,-0.5,84.3,0,0.11,13,���k��,3.7,2,,
2019/11/7,9:00:00,1,�k�k��,0.8,5.3,65.3,0,0.41,10,�쐼,6.8,38,,
2019/11/7,10:00:00,4,��,2.4,8.3,60,0,0.47,5,���쓌,4.5,39,,
2019/11/7,11:00:00,3,���k��,3,7.3,69.9,0,0.33,4,��,4.7,5,,
2019/11/7,12:00:00,3,���k��,2.9,8.8,72,0,0.27,4,��,5.3,43,,
2019/11/7,13:00:00,3,���k��,2.6,8.8,74.2,0,0.18,2,�k��,5,23,,
2019/11/7,14:00:00,6,�쓌,0.9,8.6,88.7,0,0.05,3,���k��,4.6,1,,
2019/11/7,15:00:00,14,�k��,3.2,4,95.2,3,0.03,14,�k��,7.6,19,,
2019/11/7,16:00:00,14,�k��,3.3,3.4,97.3,1.5,0.01,14,�k��,6.8,28,,
2019/11/7,17:00:00,14,�k��,3.4,3.1,97.5,0.5,0,13,���k��,6.9,59,,
2019/11/7,18:00:00,14,�k��,3.5,2.9,97.6,0.5,0,14,�k��,7.2,0,,
2019/11/7,19:00:00,14,�k��,4,2.8,95.7,0,0,14,�k��,8.2,49,,
2019/11/7,20:00:00,14,�k��,4.4,2.9,90.4,0,0,14,�k��,7.5,44,,
2019/11/7,21:00:00,14,�k��,3.3,3.3,81.8,0,0,14,�k��,6.7,0,,
2019/11/7,22:00:00,13,���k��,4,3.1,75.9,0,0,13,���k��,7.8,56,,
2019/11/7,23:00:00,12,��,1.3,1.1,86.1,0,0,13,���k��,6.7,3,,
2019/11/7,0:00:00,11,���쐼,0.9,-1.7,95.1,0,0,11,���쐼,2.5,20,,
2019/11/8,1:00:00,14,�k��,0.8,-4,96.6,0,0,11,���쐼,1.7,56,,
2019/11/8,2:00:00,13,���k��,1.7,-4.8,99.8,0,0,12,��,2.4,50,,
2019/11/8,3:00:00,13,���k��,1.1,-4.8,99.6,0,0,13,���k��,3.1,22,,
2019/11/8,4:00:00,1,�k�k��,0.8,-6,97.3,0,0,2,�k��,3.5,20,,
2019/11/8,5:00:00,13,���k��,1.4,-6.3,98.5,0,0,13,���k��,2.1,47,,
2019/11/8,6:00:00,14,�k��,0.7,-6.6,97.9,0,0,13,���k��,2.5,40,,
2019/11/8,7:00:00,13,���k��,1.3,-4.1,99.9,0,0.07,13,���k��,2.6,9,,
2019/11/8,8:00:00,12,��,1.1,-0.7,90,0,0.26,12,��,2.4,46,,
2019/11/8,9:00:00,14,�k��,1.6,2.7,71.6,0,0.44,13,���k��,3,25,,
2019/11/8,10:00:00,16,�k,1.2,4.3,58.2,0,0.55,14,�k��,2.5,26,,
2019/11/8,11:00:00,5,���쓌,2,5.8,54.6,0,0.61,5,���쓌,3.5,59,,
2019/11/8,12:00:00,4,��,1.3,6.2,47,0,0.63,7,��쓌,4,44,,
2019/11/8,13:00:00,7,��쓌,1.6,6.8,51.7,0,0.55,5,���쓌,4.9,30,,
2019/11/8,14:00:00,14,�k��,2.7,6.6,45.2,0,0.46,10,�쐼,9.2,20,,
2019/11/8,15:00:00,12,��,4.9,5.2,49.5,0,0.3,11,���쐼,8.4,47,,
2019/11/8,16:00:00,12,��,3.5,3.1,56,0,0.06,12,��,7.4,9,,
2019/11/8,17:00:00,11,���쐼,1,1.2,76.1,0,0.01,12,��,3.3,6,,
2019/11/8,18:00:00,4,��,1.1,0.7,74.8,0,0,3,���k��,2.1,52,,
2019/11/8,19:00:00,14,�k��,1.6,1.2,73.6,0,0,10,�쐼,6.7,49,,
2019/11/8,20:00:00,12,��,1.4,-2.7,86,0,0,11,���쐼,2.8,3,,
2019/11/8,21:00:00,13,���k��,1.8,-3.4,89.4,0,0,13,���k��,2.6,29,,
2019/11/8,22:00:00,13,���k��,1.9,-2.7,93.6,0,0,12,��,3.2,30,,
2019/11/8,23:00:00,12,��,1.6,-2.3,91,0,0,14,�k��,4.5,4,,
2019/11/8,0:00:00,13,���k��,1,-2.8,94.9,0,0,2,�k��,2.3,5,,
2019/11/9,1:00:00,-0.3,#N/A,85.8,0,0,,,,,,,,
2019/11/9,2:00:00,16,�k,0.7,-4,89.8,0,0,16,�k,3.7,3,,
2019/11/9,3:00:00,13,���k��,0.8,-3.3,94.7,0,0,10,�쐼,2.7,10,,
2019/11/9,4:00:00,13,���k��,1.7,-5.8,97.7,0,0,12,��,3.2,42,,
2019/11/9,5:00:00,13,���k��,1.7,-5.8,97.7,0,0,13,���k��,3.3,28,,
2019/11/9,6:00:00,13,���k��,2.3,-7.2,95.7,0,0,13,���k��,3.1,58,,
2019/11/9,7:00:00,13,���k��,2.3,-4,95.8,0,0.06,13,���k��,3.3,39,,
2019/11/9,8:00:00,12,��,0.7,0.4,82.2,0,0.23,13,���k��,3.1,43,,
2019/11/9,9:00:00,16,�k,0.4,5.2,62,0,0.41,11,���쐼,1.8,36,,
2019/11/9,10:00:00,4,��,2.3,8.3,37.4,0,0.54,5,���쓌,3.3,52,,
2019/11/9,11:00:00,3,���k��,2.4,8.8,36.7,0,0.6,5,���쓌,6.2,26,,
2019/11/9,12:00:00,2,�k��,2.5,9,37.2,0,0.58,13,���k��,4.3,34,,
2019/11/9,13:00:00,9,��쐼,1.1,8.9,33.2,0,0.59,15,�k�k��,5.2,8,,
2019/11/9,14:00:00,5,���쓌,1.2,5.8,52.7,0,0.16,4,��,3.8,4,,
2019/11/9,15:00:00,4,��,3.1,6.2,54.8,0,0.11,5,���쓌,4,59,,
2019/11/9,16:00:00,11,���쐼,2.6,5.5,51.3,0,0.11,10,�쐼,4.6,56,,
2019/11/9,17:00:00,15,�k�k��,2.3,4.4,50.3,0,0.01,15,�k�k��,4.1,56,,
2019/11/9,18:00:00,14,�k��,2,1.3,62.9,0,0,15,�k�k��,4.4,44,,
2019/11/9,19:00:00,13,���k��,2.1,-1.7,74.6,0,0,13,���k��,3.4,51,,
2019/11/9,20:00:00,9,��쐼,0.9,-4.6,83.6,0,0,12,��,3.1,27,,
2019/11/9,21:00:00,12,��,2,-4,90.9,0,0,12,��,2.6,25,,
2019/11/9,22:00:00,13,���k��,1.7,-5.9,94.1,0,0,13,���k��,2.5,56,,
2019/11/9,23:00:00,13,���k��,2.5,-4.7,91.9,0,0,13,���k��,3.6,49,,
2019/11/9,0:00:00,13,���k��,2,-5.5,91.6,0,0,14,�k��,4.1,10,,
2019/11/10,1:00:00,13,���k��,1.8,-5.4,93.6,0,0,13,���k��,3,28,,
2019/11/10,2:00:00,13,���k��,2.6,-3.9,89.4,0,0,13,���k��,3.7,58,,
2019/11/10,3:00:00,13,���k��,2.3,-5.9,91,0,0,14,�k��,4,23,,
2019/11/10,4:00:00,13,���k��,2.5,-6,92.5,0,0,14,�k��,4,8,,
2019/11/10,5:00:00,13,���k��,2.6,-6.5,92.4,0,0,13,���k��,3.7,33,,
2019/11/10,6:00:00,13,���k��,2.3,-6.5,90.3,0,0,13,���k��,3.8,46,,
2019/11/10,7:00:00,13,���k��,1.7,-4.6,92.7,0,0.06,13,���k��,3.4,27,,
2019/11/10,8:00:00,12,��,2.3,-1.3,84.4,0,0.23,13,���k��,3,38,,
2019/11/10,9:00:00,13,���k��,1.1,3.5,63.7,0,0.41,13,���k��,2.7,1,,
2019/11/10,10:00:00,12,��,1.5,6.3,43.4,0,0.54,12,��,3.1,54,,
2019/11/10,11:00:00,13,���k��,1.4,8.3,35.8,0,0.6,14,�k��,4.1,39,,
2019/11/10,12:00:00,7,��쓌,2.7,8.1,45,0,0.61,6,�쓌,4.7,57,,
2019/11/10,13:00:00,8,��,1.9,8.7,46.4,0,0.56,5,���쓌,5.9,2,,
2019/11/10,14:00:00,5,���쓌,1.8,9.1,47.7,0,0.45,6,�쓌,4.6,11,,
2019/11/10,15:00:00,5,���쓌,0.7,8.2,49.8,0,0.29,5,���쓌,3.4,34,,
2019/11/10,16:00:00,15,�k�k��,1.8,4.6,55.3,0,0.1,16,�k,3.7,52,,
2019/11/10,17:00:00,14,�k��,1.1,3.2,59.7,0,0.01,15,�k�k��,3.9,14,,
2019/11/10,18:00:00,14,�k��,2.1,2.1,66.4,0,0,14,�k��,4.9,28,,
2019/11/10,19:00:00,13,���k��,2.8,-2.3,86.7,0,0,13,���k��,4.1,0,,
2019/11/10,20:00:00,13,���k��,2.5,-3.4,91.9,0,0,13,���k��,3.9,1,,
2019/11/10,21:00:00,12,��,1.1,-3,88.7,0,0,13,���k��,2.8,3,,
2019/11/10,22:00:00,13,���k��,0.5,-4.1,88.3,0,0,13,���k��,2.5,12,,
2019/11/10,23:00:00,13,���k��,1.6,-5.4,95,0,0,14,�k��,2.3,55,,
2019/11/10,0:00:00,13,���k��,2.4,-2.8,89.4,0,0,13,���k��,3.2,55,,
2019/11/11,1:00:00,13,���k��,2.5,-2.8,88.4,0,0,13,���k��,3.6,46,,
2019/11/11,2:00:00,13,���k��,1.8,-2.2,88.5,0,0,14,�k��,4.1,20,,
2019/11/11,3:00:00,12,��,1.9,-2.4,92.2,0,0,13,���k��,2.8,20,,
2019/11/11,4:00:00,14,�k��,1,-5.1,94.7,0,0,11,���쐼,2.5,8,,
2019/11/11,5:00:00,13,���k��,0.7,-4.5,96,0,0,16,�k,2,29,,
2019/11/11,6:00:00,13,���k��,1.6,-4.4,96.1,0,0,12,��,2.5,27,,
2019/11/11,7:00:00,13,���k��,2.1,-2.4,94.4,0,0.04,13,���k��,2.8,14,,
2019/11/11,8:00:00,14,�k��,2.5,1.6,78.9,0,0.16,14,�k��,3.4,51,,
2019/11/11,9:00:00,14,�k��,2.5,4.7,68.5,0,0.34,14,�k��,4.4,52,,
2019/11/11,10:00:00,4,��,1.7,7.3,74.5,0,0.33,16,�k,7.5,42,,
2019/11/11,11:00:00,4,��,2.3,8.8,72.6,0,0.42,3,���k��,3.9,59,,
2019/11/11,12:00:00,4,��,2.6,8,70.5,0,0.58,4,��,5.1,36,,
2019/11/11,13:00:00,3,���k��,2.5,8.9,72,0,0.44,3,���k��,3.9,29,,
2019/11/11,14:00:00,3,���k��,2.3,8.5,77.2,0,0.22,4,��,3.7,17,,
2019/11/11,15:00:00,3,���k��,2.5,8.3,79,0,0.08,3,���k��,3.7,52,,
2019/11/11,16:00:00,2,�k��,1.6,7.6,82.2,0,0.02,2,�k��,3.3,31,,
2019/11/11,17:00:00,16,�k,1.6,7.7,82.6,0,0,1,�k�k��,2.9,53,,
2019/11/11,18:00:00,15,�k�k��,2.4,6,79.9,0,0,16,�k,4.7,38,,
2019/11/11,19:00:00,14,�k��,2.5,5.4,89.5,0,0,13,���k��,5.3,45,,
2019/11/11,20:00:00,14,�k��,3,5.2,92.6,0,0,14,�k��,5.5,8,,
2019/11/11,21:00:00,14,�k��,2.9,5.3,92.3,0,0,13,���k��,5.9,42,,
2019/11/11,22:00:00,14,�k��,2.9,5,93.7,1,0,15,�k�k��,6.6,19,,
2019/11/11,23:00:00,14,�k��,3.6,4.6,96.1,1,0,14,�k��,6.6,30,,
2019/11/11,0:00:00,14,�k��,3.6,4.6,96.7,0,0,13,���k��,6.3,3,,
2019/11/12,1:00:00,14,�k��,3.1,4.8,96,0,0,15,�k�k��,7.4,16,,
2019/11/12,2:00:00,14,�k��,3.5,5.1,95.2,0,0,14,�k��,6.8,21,,
2019/11/12,3:00:00,15,�k�k��,2.5,5.3,96.9,0,0,14,�k��,6.7,1,,
2019/11/12,4:00:00,14,�k��,4.2,5.6,97.3,0.5,0,14,�k��,7.7,57,,
2019/11/12,5:00:00,13,���k��,4.6,6,96.3,0,0,13,���k��,8.2,49,,
2019/11/12,6:00:00,14,�k��,4,6.5,98.3,0,0,14,�k��,7.9,4,,
2019/11/12,7:00:00,14,�k��,5.4,7.3,98.8,0.5,0.01,14,�k��,9.1,54,,
2019/11/12,8:00:00,15,�k�k��,4.2,8.9,97.7,0.5,0.04,14,�k��,8.2,1,,
2019/11/12,9:00:00,15,�k�k��,2.5,10.3,91.3,0,0.13,15,�k�k��,7.8,0,,
2019/11/12,10:00:00,16,�k,4.6,11.8,76.5,0,0.27,16,�k,9.8,59,,
2019/11/12,11:00:00,16,�k,6,13.3,64.9,0,0.48,15,�k�k��,12.4,44,,
2019/11/12,12:00:00,16,�k,4.5,14.6,54.9,0,0.56,15,�k�k��,12.4,41,,
2019/11/12,13:00:00,16,�k,5.1,15.2,50,0.5,0.54,16,�k,12,25,,
2019/11/12,14:00:00,16,�k,5.8,14.9,47.4,0,0.44,13,���k��,12.3,56,,
2019/11/12,15:00:00,15,�k�k��,5.1,12.4,56.5,0,0.28,15,�k�k��,11.7,37,,
2019/11/12,16:00:00,15,�k�k��,6.3,10.6,58.7,0,0.1,15,�k�k��,12.3,58,,
2019/11/12,17:00:00,15,�k�k��,7.2,8.8,62.7,0,0,15,�k�k��,14.1,23,,
2019/11/12,18:00:00,14,�k��,5.1,7.8,58.6,0,0,14,�k��,11.6,17,,
2019/11/12,19:00:00,14,�k��,4.7,7.2,59.2,0,0,14,�k��,10.2,30,,
2019/11/12,20:00:00,15,�k�k��,5.4,6.8,61.1,0,0,14,�k��,10.6,26,,
2019/11/12,21:00:00,12,��,3.9,5.3,68.7,0,0,15,�k�k��,9.7,4,,
2019/11/12,22:00:00,16,�k,1.8,3.1,73.5,0,0,13,���k��,8.3,28,,
2019/11/12,23:00:00,7,��쓌,0.3,-0.6,86.7,0,0,7,��쓌,7.4,56,,
2019/11/12,0:00:00,11,���쐼,0.5,-1.5,88.7,0,0,12,��,2.5,13,,
2019/11/13,1:00:00,12,��,1.4,-0.4,93.5,0,0,12,��,2.4,59,,
2019/11/13,2:00:00,13,���k��,2.8,1.8,83.7,0,0,13,���k��,4.6,18,,
2019/11/13,3:00:00,13,���k��,0.7,1.2,84.5,0,0,12,��,2.8,0,,
2019/11/13,4:00:00,14,�k��,1.8,2,86.5,0,0,14,�k��,3.5,57,,
2019/11/13,5:00:00,13,���k��,2.2,-0.2,91.3,0,0,14,�k��,4.2,39,,
2019/11/13,6:00:00,13,���k��,1.7,0.4,85.1,0,0,14,�k��,4.4,13,,
2019/11/13,7:00:00,12,��,2.5,0.9,86,0,0.04,13,���k��,3.5,8,,
2019/11/13,8:00:00,13,���k��,1.9,4,76,0,0.2,12,��,2.8,2,,
2019/11/13,9:00:00,14,�k��,1,7.4,62.2,0,0.37,12,��,2.8,37,,
2019/11/13,10:00:00,14,�k��,0.6,9.7,56.1,0,0.49,14,�k��,2.2,6,,
2019/11/13,11:00:00,6,�쓌,2.7,10.5,54,0,0.56,6,�쓌,5.4,38,,
2019/11/13,12:00:00,7,��쓌,2.5,9.8,53.5,0,0.57,7,��쓌,4.8,7,,
2019/11/13,13:00:00,6,�쓌,2.2,10.3,61.3,0,0.52,7,��쓌,4,47,,
2019/11/13,14:00:00,5,���쓌,1.8,9.7,70,0,0.34,8,��,4.2,16,,
2019/11/13,15:00:00,4,��,0.6,8.8,76.1,0,0.2,7,��쓌,3.6,25,,
2019/11/13,16:00:00,1,�k�k��,0.8,5.2,86.3,0,0.04,2,�k��,1.3,50,,
2019/11/13,17:00:00,3,���k��,0.6,4.8,88.9,0,0,2,�k��,1.5,25,,
2019/11/13,18:00:00,15,�k�k��,0.9,2.9,93.7,0,0,16,�k,1.7,54,,
2019/11/13,19:00:00,13,���k��,1.1,3.7,94.5,0,0,12,��,2.7,33,,
2019/11/13,20:00:00,12,��,1.3,3,95.3,0,0,8,��,2.3,34,,
2019/11/13,21:00:00,13,���k��,2.2,3.8,94.5,0,0,13,���k��,2.9,29,,
2019/11/13,22:00:00,13,���k��,1.4,3.4,97.1,0,0,13,���k��,2.7,2,,
2019/11/13,23:00:00,3.1,���k��,96.2,0,0,,,,,,,,
2019/11/13,0:00:00,8,��,6.2,10.7,93,0,0,8,��,12.3,49,,
2019/11/14,1:00:00,8,��,5.2,10.7,94.9,0.5,0,9,��쐼,10.7,19,,
2019/11/14,2:00:00,8,��,7.4,11.4,97.7,1,0,8,��,14.8,58,,
2019/11/14,3:00:00,8,��,7.9,11.5,97,0.5,0,10,�쐼,14.7,16,,
2019/11/14,4:00:00,8,��,7.4,11.3,96.6,1.5,0,8,��,15,59,,
2019/11/14,5:00:00,9,��쐼,5.3,11.9,97.7,3,0,8,��,14,1,,
2019/11/14,6:00:00,9,��쐼,1.5,11.3,97.9,4,0,9,��쐼,10,0,,
2019/11/14,7:00:00,11,���쐼,2.7,8.9,97.5,0,0.02,11,���쐼,4.3,58,,
2019/11/14,8:00:00,11,���쐼,2.6,9.5,94.5,0,0.04,11,���쐼,4.6,4,,
2019/11/14,9:00:00,11,���쐼,1.1,9.7,96.7,0,0.08,10,�쐼,5.9,17,,
2019/11/14,10:00:00,11,���쐼,6.7,13,73.8,0.5,0.26,11,���쐼,11.3,50,,
2019/11/14,11:00:00,11,���쐼,7.6,12.6,65.8,0,0.41,11,���쐼,12.7,50,,
2019/11/14,12:00:00,12,��,10,12.1,43.5,0,0.51,13,���k��,15.7,49,,
2019/11/14,13:00:00,11,���쐼,9.8,10.9,41.8,0,0.54,11,���쐼,19.4,38,,
2019/11/14,14:00:00,11,���쐼,8.9,8.4,41.5,0,0.28,11,���쐼,19.1,36,,
2019/11/14,15:00:00,12,��,8.4,6.1,45.7,0,0.13,12,��,16.2,32,,
2019/11/14,16:00:00,12,��,11.8,4.5,33.2,0,0.03,12,��,20.6,49,,
2019/11/14,17:00:00,12,��,9.8,2.6,38.9,0,0.01,13,���k��,21.9,17,,
2019/11/14,18:00:00,12,��,5.5,0.9,42.9,0,0,13,���k��,13.6,21,,
2019/11/14,19:00:00,12,��,4.8,-0.4,41.4,0,0,13,���k��,11.5,47,,
2019/11/14,20:00:00,13,���k��,1,-1.3,49.6,0,0,12,��,7.1,28,,
2019/11/14,21:00:00,16,�k,0.7,-4.9,71.5,0,0,11,���쐼,4.8,6,,
2019/11/14,22:00:00,13,���k��,1.1,-4.9,75.7,0,0,13,���k��,3,52,,
2019/11/14,23:00:00,11,���쐼,2.2,-4.4,63.5,0,0,10,�쐼,3.6,59,,
2019/11/14,0:00:00,12,��,3.7,-3.1,54.6,0,0,14,�k��,8.7,53,,
2019/11/15,1:00:00,16,�k,0.6,-6.7,69.2,0,0,9,��쐼,12.6,52,,
2019/11/15,2:00:00,13,���k��,9.8,-0.3,49.8,0,0,13,���k��,15.1,55,,
2019/11/15,3:00:00,13,���k��,8.5,0.8,48.8,0,0,12,��,15.3,35,,
2019/11/15,4:00:00,12,��,9.2,0.9,51.4,0,0,13,���k��,16.6,22,,
2019/11/15,5:00:00,12,��,5.6,0.8,50.9,0,0,13,���k��,12.6,40,,
2019/11/15,6:00:00,13,���k��,5.8,0.9,48.8,0,0,13,���k��,13.6,58,,
2019/11/15,7:00:00,12,��,4.3,1.3,43,0,0.04,13,���k��,11,34,,
2019/11/15,8:00:00,12,��,7.6,2.6,41.5,0,0.2,11,���쐼,12.3,16,,
2019/11/15,9:00:00,12,��,6.5,4,35,0,0.38,13,���k��,12.1,53,,
2019/11/15,10:00:00,12,��,7.4,4.8,39.1,0,0.51,13,���k��,14.7,48,,
2019/11/15,11:00:00,11,���쐼,8.5,4.7,46.3,0,0.57,13,���k��,14.1,23,,
2019/11/15,12:00:00,11,���쐼,5.1,4,56.5,0,0.48,11,���쐼,11.8,5,,
2019/11/15,13:00:00,11,���쐼,4.8,4.7,55.8,0,0.38,10,�쐼,9.1,33,,
2019/11/15,14:00:00,10,�쐼,2.3,2.8,79.5,0,0.13,11,���쐼,7.7,2,,
2019/11/15,15:00:00,7,��쓌,0.9,1,96.4,0,0.04,8,��,3,4,,
2019/11/15,16:00:00,16,�É�,0.1,0.7,99,0.5,0.02,7,��쓌,1.4,0,,
2019/11/15,17:00:00,14,�k��,1.5,0.5,100,0,0.01,15,�k�k��,5.3,34,,
2019/11/15,18:00:00,13,���k��,2.5,-0.4,98,0,0,14,�k��,4.2,35,,
2019/11/15,19:00:00,14,�k��,1.9,-1.6,97.1,0,0,15,�k�k��,5,4,,
2019/11/15,20:00:00,13,���k��,3.5,-2.3,96.7,0,0,12,��,7.5,50,,
2019/11/15,21:00:00,15,�k�k��,1.6,-2.9,94.8,0,0,16,�k,4.7,8,,
2019/11/15,22:00:00,5,���쓌,1.4,-4.2,94.8,0,0,3,���k��,3.4,48,,
2019/11/15,23:00:00,11,���쐼,2.6,-1.1,73.2,0,0,11,���쐼,6.4,51,,
2019/11/15,0:00:00,13,���k��,7.6,1,67.5,0,0,13,���k��,13.2,34,,
2019/11/16,1:00:00,12,��,7.3,1.2,60,0,0,12,��,13.4,38,,
2019/11/16,2:00:00,11,���쐼,3.4,-0.5,66.3,0,0,12,��,11.1,5,,
2019/11/16,3:00:00,12,��,8.7,1.6,54.2,0,0,13,���k��,16.3,46,,
2019/11/16,4:00:00,12,��,5.6,0.9,59.1,0,0,12,��,13.5,26,,
2019/11/16,5:00:00,12,��,6.8,0.9,54.1,0,0,12,��,12.1,52,,
2019/11/16,6:00:00,12,��,7.4,1.6,45.6,0,0,12,��,16.7,26,,
2019/11/16,7:00:00,12,��,7,1.5,45.9,0,0.04,12,��,12.6,51,,
2019/11/16,8:00:00,12,��,7.7,2.6,42.7,0,0.2,13,���k��,15.9,9,,
2019/11/16,9:00:00,12,��,7,3.6,39.9,0,0.38,13,���k��,14.8,14,,
2019/11/16,10:00:00,13,���k��,8.1,4.3,39.2,0,0.51,12,��,15.4,44,,
2019/11/16,11:00:00,13,���k��,7.6,4.6,37.3,0,0.57,13,���k��,15.2,12,,
2019/11/16,12:00:00,13,���k��,9.3,3.7,41.3,0,0.56,13,���k��,14.9,45,,
2019/11/16,13:00:00,13,���k��,6.1,4.8,44.3,0,0.47,13,���k��,15.1,12,,
2019/11/16,14:00:00,13,���k��,6,4,47.5,0,0.37,13,���k��,11.5,22,,
2019/11/16,15:00:00,12,��,4.7,3.1,48.8,0,0.21,12,��,11.3,24,,
2019/11/16,16:00:00,12,��,6,2.2,51.4,0,0.04,13,���k��,10.4,38,,
2019/11/16,17:00:00,12,��,4.8,1.7,48.2,0,0,13,���k��,10.4,25,,
2019/11/16,18:00:00,13,���k��,5.4,1.8,47,0,0,13,���k��,10.2,6,,
2019/11/16,19:00:00,12,��,4.8,1.7,49.1,0,0,13,���k��,9.5,33,,
2019/11/16,20:00:00,12,��,5.4,1.7,47.4,0,0,12,��,12.3,22,,